Lamar, CO

7:21 AM MDT on March 23, 2017 (GMT -0600)
Lamar Municipal

Weather History for KLAA - December, 2012

Change the Weather History Date:

Sunday, December 2, 2012

  Actual Average Record
Temperature  
Mean Temperature 51 °F 33 °F  
Max Temperature 70 °F 49 °F 74 °F (1973)
Min Temperature 31 °F 17 °F -9 °F (1991)
Degree Days  
Heating Degree Days 14 32  
Month to date heating degree days 25 64  
Since 1 July heating degree days 1104 1280  
Cooling Degree Days 0 0  
Month to date cooling degree days 0 0  
Year to date cooling degree days 1626 1121  
Growing Degree Days 1 (Base 50)    
Moisture  
Dew Point 23 °F    
Average Humidity 41    
Maximum Humidity 66    
Minimum Humidity 16    
Precipitation  
Precipitation 0.00 in 0.01 in 0.64 in (1953)
Month to date precipitation 0.00  
Year to date precipitation 6.06  
Sea Level Pressure  
Sea Level Pressure 29.81 in    
Wind  
Wind Speed 7 mph (SSW)    
Max Wind Speed 18 mph    
Max Gust Speed 23 mph    
Visibility 10 miles    
Events      
T = Trace of Precipitation, MM = Missing Value Source: NWS Daily Summary

Daily Weather History Graph

Daily Weather History Graph

Search for Another Location

Airport or City:

Trip Planner

Search our weather history database for the weather conditions in past years. The results will help you decide how hot, cold, wet, or windy it might be!

Date:

Astronomy

Dec. 02, 2012 Rise Set
Actual Time 6:49 AM MST 4:31 PM MST
Civil Twilight 6:20 AM MST 5:00 PM MST
Nautical Twilight 5:47 AM MST 5:32 PM MST
Astronomical Twilight 5:15 AM MST 6:04 PM MST
Moon 8:19 PM MST (12/2) 9:41 AM MST (12/2)
Length of Visible Light 10h 39m
Length of Day
9h 41m
Waning Gibbous, 85% of the Moon is Illuminated
Dec 2
Waning Gibbous
Dec 6
Last Quarter
Dec 13
New
Dec 19
First Quarter
Dec 28
Full

Hourly Weather History & Observations

Time (MST) Temp. Windchill Dew Point Humidity Pressure Visibility Wind Dir Wind Speed Gust Speed Precip Events Conditions
12:53 AM 37.9 °F 32.1 °F 24.1 °F 57% 29.94 in 10.0 mi SSW 8.1 mph - N/A   Clear
1:53 AM 36.0 °F 32.1 °F 23.0 °F 59% 29.93 in 10.0 mi WNW 4.6 mph - N/A   Clear
2:53 AM 35.1 °F - 21.9 °F 59% 29.93 in 10.0 mi Calm Calm - N/A   Clear
3:53 AM 37.0 °F - 24.1 °F 59% 29.93 in 10.0 mi Calm Calm - N/A   Clear
5:53 AM 37.0 °F - 24.1 °F 59% 29.97 in 10.0 mi Calm Calm - N/A   Clear
6:53 AM 32.0 °F 28.7 °F 23.0 °F 69% 30.00 in 10.0 mi SSW 3.5 mph - N/A   Clear
7:53 AM 36.0 °F 33.3 °F 24.1 °F 62% 29.99 in 10.0 mi SSW 3.5 mph - N/A   Clear
8:53 AM 45.0 °F 42.6 °F 27.0 °F 49% 29.97 in 10.0 mi NE 4.6 mph - N/A   Clear
9:53 AM 57.9 °F - 28.0 °F 32% 29.92 in 10.0 mi ENE 5.8 mph - N/A   Clear
10:53 AM 57.9 °F - 28.0 °F 32% 29.89 in 10.0 mi West 4.6 mph - N/A   Clear
11:53 AM 66.0 °F - 24.1 °F 20% 29.84 in 10.0 mi South 12.7 mph - N/A   Clear
12:12 PM 66.2 °F - 23.0 °F 19% 29.89 in 10.0 mi South 13.8 mph - N/A   Clear
12:53 PM 66.9 °F - 23.0 °F 19% 29.80 in 10.0 mi South 8.1 mph - N/A   Clear
1:53 PM 70.0 °F - 23.0 °F 17% 29.76 in 10.0 mi SSW 6.9 mph - N/A   Clear
2:53 PM 69.1 °F - 21.9 °F 17% 29.74 in 10.0 mi South 16.1 mph 23.0 mph N/A   Clear
3:53 PM 66.0 °F - 23.0 °F 20% 29.72 in 10.0 mi SSE 12.7 mph - N/A   Clear
4:53 PM 57.0 °F - 23.0 °F 27% 29.70 in 10.0 mi SSE 13.8 mph - N/A   Clear
5:53 PM 46.9 °F - 21.0 °F 36% 29.73 in 10.0 mi Calm Calm - N/A   Clear
6:53 PM 46.0 °F 43.9 °F 21.9 °F 39% 29.73 in 10.0 mi SE 4.6 mph - N/A   Clear
7:53 PM 44.1 °F 40.8 °F 21.9 °F 42% 29.68 in 10.0 mi SW 5.8 mph - N/A   Clear
8:53 PM 37.9 °F 31.5 °F 21.0 °F 51% 29.66 in 10.0 mi NE 9.2 mph - N/A   Clear
9:53 PM 39.0 °F 34.0 °F 18.0 °F 43% 29.61 in 10.0 mi SW 6.9 mph - N/A   Clear
10:53 PM 43.0 °F 36.0 °F 16.0 °F 34% 29.58 in 10.0 mi SSW 13.8 mph - N/A   Clear
11:53 PM 44.1 °F 40.8 °F 14.0 °F 30% 29.55 in 10.0 mi WSW 5.8 mph - N/A   Clear